Regional Weather Roundup
Issued by NWS

Home | Current Version | Previous Version | Text Only | Print | Product List | Glossary On
Versions: 1 2 3 4 5 6 7 8 9 10 11 12 13 14 15 16 17 18 19 20 21 22 23 24 25 26 27 28 29 30 31 32 33 34 35 36 37 38 39 40 41 42 43 44 45 46 47 48 49 50
000
ASUS44 KOUN 202110
RWROK

WEATHER ROUNDUP FOR OKLAHOMA
NATIONAL WEATHER SERVICE NORMAN OK
300 PM CST FRI JAN 20 2017

NOTE: "FAIR" INDICATES FEW OR NO CLOUDS BELOW 12,000 FEET WITH NO
      SIGNIFICANT WEATHER AND/OR OBSTRUCTIONS TO VISIBILITY.

OKZ001>007-009>012-014-015-017-202200-
NORTHWEST OKLAHOMA AND THE PANHANDLE

CITY           SKY/WX    TMP DP  RH WIND       PRES   REMARKS
GAGE           SUNNY     65  25  22 SW26G38   29.38S
GUYMON         PTSUNNY   55  27  34 NW18G31   29.37R
ENID/WOODRING  MOSUNNY   52  45  76 SW12      29.45F
$$

OKZ016-021>023-033>039-044-045-202200-
SOUTHWEST OKLAHOMA

CITY           SKY/WX    TMP DP  RH WIND       PRES   REMARKS
LAWTON/REGL    SUNNY     70  34  26 SW22G28   29.52R
LAWTON/FT SILL SUNNY     70  35  28 W23G31    29.50S
FREDERICK      MOSUNNY   68  35  29 W20G28    29.50S
CLINTON        SUNNY     66  31  27 SW28G40   29.45F
HOBART         SUNNY     67  34  29 W29G37    29.48S
ALTUS AFB      SUNNY     70  30  23 SW24G37   29.49F
$$

OKZ018>020-024>031-202200-
CENTRAL OKLAHOMA

CITY           SKY/WX    TMP DP  RH WIND       PRES   REMARKS
OKLAHOMA CITY  MOSUNNY   68  33  27 SW23      29.48F
OKC/WILEY POST SUNNY     67  36  31 SW17G24   29.47F
OKC/TINKER AFB SUNNY     67  31  25 SW22      29.47F
STILLWATER     SUNNY     59  40  49 SW14      29.47F
GUTHRIE        SUNNY     63  39  41 W13G22    29.47F
$$

OKZ008-013-054>072-202200-
NORTHEAST OKLAHOMA

CITY           SKY/WX    TMP DP  RH WIND       PRES   REMARKS
TULSA          MOSUNNY   69  36  29 SW15G28   29.45S
TULSA/JONES    SUNNY     69  35  28 SW13G25   29.46R
PONCA CITY     CLOUDY    46  40  79 SW16G23   29.47S
BARTLESVILLE   SUNNY     64  38  38 SW17G25   29.45R
MUSKOGEE       SUNNY     70  39  32 S20G25    29.50F
$$

OKZ032-040>043-046>053-073>077-202200-
SOUTH CENTRAL/SOUTHEAST OKLAHOMA

CITY           SKY/WX    TMP DP  RH WIND       PRES   REMARKS
ARDMORE/DWNTWN SUNNY     72  30  21 W12G22    29.55F
MCALESTER      MOSUNNY   74  32  21 SW23G31   29.53F
$$




USA.gov is the U.S. government's official web portal to all federal, state and local government web resources and services.